TimePDT,TemperatureF,Dew PointF,Humidity,Sea Level PressureIn,VisibilityMPH,Wind Direction,Wind SpeedMPH,Gust SpeedMPH,PrecipitationIn,Events,Conditions,WindDirDegrees,DateUTC
12:53 AM,46.9,28.9,50,30.06,10.0,NW,9.2,-,N/A,,Clear,320,2013-04-17 07:53:00
1:53 AM,44.1,28.9,55,30.07,10.0,West,8.1,-,N/A,,Clear,270,2013-04-17 08:53:00
2:53 AM,41.0,30.0,65,30.08,10.0,WNW,8.1,-,N/A,,Clear,290,2013-04-17 09:53:00
3:53 AM,42.1,28.9,60,30.09,10.0,NNW,6.9,-,N/A,,Clear,340,2013-04-17 10:53:00
4:53 AM,37.0,28.9,73,30.10,10.0,NW,4.6,-,N/A,,Clear,320,2013-04-17 11:53:00
5:53 AM,36.0,28.9,76,30.12,10.0,WNW,5.8,-,N/A,,Clear,290,2013-04-17 12:53:00
7:53 AM,44.1,32.0,63,30.18,10.0,WNW,6.9,-,N/A,,Clear,300,2013-04-17 14:53:00
8:53 AM,48.9,32.0,52,30.20,10.0,WNW,9.2,-,N/A,,Clear,300,2013-04-17 15:53:00
9:53 AM,54.0,32.0,43,30.19,10.0,NW,8.1,-,N/A,,Unknown,310,2013-04-17 16:53:00
10:53 AM,60.1,28.9,31,30.21,10.0,WNW,11.5,-,N/A,,Clear,300,2013-04-17 17:53:00
11:53 AM,64.9,25.0,22,30.21,10.0,NNW,17.3,23.0,N/A,,Clear,340,2013-04-17 18:53:00
12:53 PM,66.9,19.9,17,30.19,10.0,NNW,13.8,21.9,N/A,,Clear,330,2013-04-17 19:53:00
1:53 PM,69.1,19.0,15,30.17,10.0,NW,10.4,19.6,N/A,,Clear,310,2013-04-17 20:53:00
2:53 PM,71.1,14.0,11,30.16,10.0,NNW,12.7,-,N/A,,Clear,340,2013-04-17 21:53:00
3:53 PM,71.1,12.9,11,30.14,10.0,NW,12.7,21.9,N/A,,Clear,310,2013-04-17 22:53:00
4:28 PM,71.6,17.6,13,30.13,10.0,NW,16.1,23.0,N/A,,Partly Cloudy,320,2013-04-17 23:28:00
4:53 PM,71.1,16.0,12,30.13,10.0,NW,15.0,20.7,N/A,,Clear,320,2013-04-17 23:53:00
5:04 PM,69.8,15.8,13,30.13,10.0,NW,12.7,23.0,N/A,,Partly Cloudy,320,2013-04-18 00:04:00
5:53 PM,70.0,19.9,15,30.13,10.0,NW,13.8,19.6,N/A,,Clear,320,2013-04-18 00:53:00
6:53 PM,66.9,24.1,20,30.13,10.0,NW,11.5,-,N/A,,Clear,310,2013-04-18 01:53:00
7:53 PM,61.0,26.1,26,30.14,10.0,WNW,8.1,-,N/A,,Clear,290,2013-04-18 02:53:00
8:05 PM,60.8,26.6,27,30.14,10.0,West,6.9,-,N/A,,Partly Cloudy,280,2013-04-18 03:05:00
8:53 PM,60.1,26.1,27,30.15,10.0,WNW,10.4,-,N/A,,Clear,290,2013-04-18 03:53:00
9:53 PM,55.0,28.0,35,30.18,10.0,West,5.8,-,N/A,,Clear,270,2013-04-18 04:53:00
10:53 PM,53.1,28.9,40,30.18,10.0,West,5.8,-,N/A,,Clear,270,2013-04-18 05:53:00
11:53 PM,50.0,28.9,44,30.19,10.0,West,3.5,-,N/A,,Clear,270,2013-04-18 06:53:00